Time,TemperatureF,DewpointF,PressureIn,WindDirection,WindDirectionDegrees,WindSpeedMPH,WindSpeedGustMPH,Humidity,HourlyPrecipIn,Conditions,Clouds,dailyrainin,SoftwareType,DateUTC
2013-05-12 00:03:00,-999.0,-99.9,29.75,ESE,114,0.0,0.0,76,0.00,,,0.00,,2013-05-12 04:03:00,
2013-05-12 00:12:00,70.0,62.0,29.75,ESE,114,0.0,0.0,76,0.00,,,0.00,,2013-05-12 04:12:00,
2013-05-12 00:22:00,69.0,61.0,29.75,SSW,195,0.0,2.0,77,0.00,,,0.00,,2013-05-12 04:22:00,
2013-05-12 00:33:00,69.0,61.0,29.74,SW,229,0.0,2.0,76,0.00,,,0.00,,2013-05-12 04:33:00,
2013-05-12 00:43:00,69.0,61.0,29.73,SSW,207,0.0,1.0,76,0.00,,,0.00,,2013-05-12 04:43:00,
2013-05-12 00:52:00,69.0,61.0,29.73,SSW,207,0.0,1.0,76,0.00,,,0.00,,2013-05-12 04:52:00,
2013-05-12 01:02:00,69.0,61.0,29.73,SSW,207,0.0,0.0,77,0.00,,,0.00,,2013-05-12 05:02:00,
2013-05-12 01:12:00,69.0,61.0,29.73,SSW,207,0.0,0.0,77,0.00,,,0.00,,2013-05-12 05:12:00,
2013-05-12 01:22:00,69.0,61.0,29.74,SSW,207,0.0,0.0,77,0.00,,,0.00,,2013-05-12 05:22:00,
2013-05-12 01:32:00,69.0,62.0,29.75,SSW,207,0.0,0.0,78,0.00,,,0.00,,2013-05-12 05:32:00,
2013-05-12 01:42:00,69.0,62.0,29.75,SSW,207,0.0,0.0,78,0.00,,,0.00,,2013-05-12 05:42:00,
2013-05-12 01:52:00,68.0,61.0,29.75,SSW,207,0.0,0.0,79,0.00,,,0.00,,2013-05-12 05:52:00,
2013-05-12 02:01:00,69.0,62.0,29.76,WSW,251,0.0,3.0,79,0.00,,,0.00,,2013-05-12 06:01:00,
2013-05-12 02:11:00,69.0,62.0,29.76,WSW,251,0.0,3.0,79,0.00,,,0.00,,2013-05-12 06:11:00,
2013-05-12 02:21:00,68.0,63.0,29.75,West,263,0.0,0.0,83,0.02,,,0.02,,2013-05-12 06:21:00,
2013-05-12 02:32:00,66.0,62.0,29.74,West,264,0.0,0.0,86,0.02,,,0.02,,2013-05-12 06:32:00,
2013-05-12 02:42:00,66.0,63.0,29.75,West,264,0.0,0.0,89,0.02,,,0.02,,2013-05-12 06:42:00,
2013-05-12 02:52:00,66.0,63.0,29.75,West,264,0.0,0.0,89,0.02,,,0.02,,2013-05-12 06:52:00,
2013-05-12 03:01:00,65.0,62.0,29.75,West,263,0.0,0.0,90,0.02,,,0.02,,2013-05-12 07:01:00,
2013-05-12 03:11:00,65.0,62.0,29.75,West,263,0.0,0.0,90,0.02,,,0.02,,2013-05-12 07:11:00,
2013-05-12 03:22:00,65.0,62.0,29.75,West,263,0.0,0.0,91,0.00,,,0.02,,2013-05-12 07:22:00,
2013-05-12 03:32:00,65.0,63.0,29.75,West,263,0.0,0.0,92,0.00,,,0.02,,2013-05-12 07:32:00,
2013-05-12 03:42:00,65.0,63.0,29.75,West,263,0.0,0.0,92,0.00,,,0.02,,2013-05-12 07:42:00,
2013-05-12 03:52:00,64.0,62.0,29.75,WNW,295,0.0,4.0,92,0.00,,,0.02,,2013-05-12 07:52:00,
2013-05-12 04:02:00,64.0,61.0,29.75,WSW,250,1.0,3.0,91,0.01,,,0.03,,2013-05-12 08:02:00,
2013-05-12 04:11:00,64.0,61.0,29.75,WSW,250,1.0,3.0,91,0.01,,,0.03,,2013-05-12 08:11:00,
2013-05-12 04:21:00,64.0,62.0,29.74,WSW,250,0.0,0.0,92,0.01,,,0.03,,2013-05-12 08:21:00,
2013-05-12 04:32:00,63.0,61.0,29.75,West,262,0.0,1.0,92,0.01,,,0.03,,2013-05-12 08:32:00,
2013-05-12 04:42:00,63.0,61.0,29.75,West,262,0.0,1.0,92,0.01,,,0.03,,2013-05-12 08:42:00,
2013-05-12 04:53:00,63.0,61.0,29.75,West,262,0.0,0.0,93,0.01,,,0.03,,2013-05-12 08:53:00,
2013-05-12 05:01:00,63.0,61.0,29.75,West,262,0.0,0.0,93,0.00,,,0.03,,2013-05-12 09:01:00,
2013-05-12 05:11:00,63.0,61.0,29.75,West,262,0.0,0.0,93,0.00,,,0.03,,2013-05-12 09:11:00,
2013-05-12 05:21:00,63.0,61.0,29.74,NW,309,0.0,2.0,94,0.00,,,0.03,,2013-05-12 09:21:00,
2013-05-12 05:33:00,63.0,61.0,29.74,NW,309,0.0,0.0,94,0.00,,,0.03,,2013-05-12 09:33:00,
2013-05-12 05:43:00,63.0,61.0,29.74,NW,309,0.0,0.0,94,0.00,,,0.03,,2013-05-12 09:43:00,
2013-05-12 05:53:00,62.0,60.0,29.75,NNE,18,0.0,0.0,94,0.00,,,0.03,,2013-05-12 09:53:00,
2013-05-12 06:03:00,63.0,61.0,29.75,NNE,18,0.0,0.0,94,0.00,,,0.03,,2013-05-12 10:03:00,
2013-05-12 06:12:00,63.0,61.0,29.75,NNE,18,0.0,0.0,94,0.00,,,0.03,,2013-05-12 10:12:00,
2013-05-12 06:23:00,63.0,62.0,29.76,NNE,18,0.0,1.0,95,0.00,,,0.03,,2013-05-12 10:23:00,
2013-05-12 06:33:00,63.0,61.0,29.76,NNW,338,0.0,3.0,93,0.00,,,0.03,,2013-05-12 10:33:00,
2013-05-12 06:42:00,63.0,61.0,29.76,NNW,338,0.0,3.0,93,0.00,,,0.03,,2013-05-12 10:42:00,
2013-05-12 06:52:00,62.0,60.0,29.77,WNW,288,0.0,0.0,93,0.00,,,0.03,,2013-05-12 10:52:00,
2013-05-12 07:02:00,62.0,60.0,29.78,NNE,17,0.0,2.0,93,0.00,,,0.03,,2013-05-12 11:02:00,
2013-05-12 07:12:00,62.0,60.0,29.78,NNE,17,0.0,2.0,93,0.00,,,0.03,,2013-05-12 11:12:00,
2013-05-12 07:22:00,62.0,60.0,29.78,WNW,294,0.0,3.0,92,0.00,,,0.03,,2013-05-12 11:22:00,
2013-05-12 07:32:00,62.0,58.0,29.78,West,268,0.0,6.0,88,0.00,,,0.03,,2013-05-12 11:32:00,
2013-05-12 07:42:00,61.0,55.0,29.79,NW,325,0.0,9.0,82,0.00,,,0.03,,2013-05-12 11:42:00,
2013-05-12 07:52:00,61.0,55.0,29.79,NW,325,0.0,9.0,82,0.00,,,0.03,,2013-05-12 11:52:00,
2013-05-12 08:02:00,61.0,54.0,29.79,NNW,333,1.0,4.0,77,0.00,,,0.03,,2013-05-12 12:02:00,
2013-05-12 08:11:00,61.0,54.0,29.80,North,10,0.0,3.0,77,0.00,,,0.03,,2013-05-12 12:11:00,
2013-05-12 08:22:00,61.0,54.0,29.80,North,10,0.0,3.0,77,0.00,,,0.03,,2013-05-12 12:22:00,
2013-05-12 08:32:00,62.0,55.0,29.81,WNW,289,0.0,0.0,77,0.00,,,0.03,,2013-05-12 12:32:00,
2013-05-12 08:42:00,62.0,55.0,29.81,WNW,289,0.0,0.0,77,0.00,,,0.03,,2013-05-12 12:42:00,
2013-05-12 08:52:00,62.0,52.0,29.81,NW,320,2.0,13.0,71,0.00,,,0.03,,2013-05-12 12:52:00,
2013-05-12 09:02:00,62.0,53.0,29.82,NW,323,2.0,4.0,72,0.00,,,0.03,,2013-05-12 13:02:00,
2013-05-12 09:11:00,62.0,53.0,29.82,NW,323,2.0,4.0,72,0.00,,,0.03,,2013-05-12 13:11:00,
2013-05-12 09:21:00,62.0,51.0,29.83,WNW,284,0.0,6.0,68,0.00,,,0.03,,2013-05-12 13:21:00,
2013-05-12 09:32:00,63.0,51.0,29.83,North,10,1.0,9.0,66,0.00,,,0.03,,2013-05-12 13:32:00,
2013-05-12 09:42:00,63.0,51.0,29.83,North,10,1.0,9.0,66,0.00,,,0.03,,2013-05-12 13:42:00,
2013-05-12 09:52:00,65.0,52.0,29.83,NW,307,0.0,7.0,63,0.00,,,0.03,,2013-05-12 13:52:00,
2013-05-12 10:01:00,66.0,51.0,29.83,West,280,0.0,8.0,58,0.00,,,0.03,,2013-05-12 14:01:00,
2013-05-12 10:11:00,66.0,51.0,29.83,West,280,0.0,8.0,58,0.00,,,0.03,,2013-05-12 14:11:00,
2013-05-12 10:21:00,66.0,49.0,29.83,WNW,303,1.0,6.0,55,0.00,,,0.03,,2013-05-12 14:21:00,
2013-05-12 10:32:00,67.0,50.0,29.83,WNW,296,3.0,10.0,55,0.00,,,0.03,,2013-05-12 14:32:00,
2013-05-12 10:42:00,68.0,50.0,29.83,NW,306,3.0,7.0,53,0.00,,,0.03,,2013-05-12 14:42:00,
2013-05-12 10:52:00,68.0,50.0,29.83,NW,306,3.0,7.0,53,0.00,,,0.03,,2013-05-12 14:52:00,
2013-05-12 11:01:00,69.0,49.0,29.83,NNW,343,0.0,7.0,49,0.00,,,0.03,,2013-05-12 15:01:00,
2013-05-12 11:11:00,69.0,49.0,29.83,NNW,343,0.0,7.0,49,0.00,,,0.03,,2013-05-12 15:11:00,
2013-05-12 11:21:00,69.0,50.0,29.83,NNW,332,0.0,13.0,50,0.00,,,0.03,,2013-05-12 15:21:00,
2013-05-12 11:34:00,70.0,50.0,29.83,WSW,243,6.0,11.0,49,0.00,,,0.03,,2013-05-12 15:34:00,
2013-05-12 11:42:00,70.0,50.0,29.83,WSW,243,6.0,11.0,49,0.00,,,0.03,,2013-05-12 15:42:00,
2013-05-12 11:53:00,70.0,49.0,29.83,NW,315,0.0,7.0,48,0.00,,,0.03,,2013-05-12 15:53:00,
2013-05-12 12:02:00,70.0,51.0,29.83,WNW,300,0.0,4.0,51,0.00,,,0.03,,2013-05-12 16:02:00,
2013-05-12 12:13:00,70.0,51.0,29.83,WNW,300,0.0,4.0,51,0.00,,,0.03,,2013-05-12 16:13:00,
2013-05-12 12:23:00,71.0,51.0,29.83,NNE,23,3.0,11.0,50,0.00,,,0.03,,2013-05-12 16:23:00,
2013-05-12 12:33:00,72.0,51.0,29.83,ENE,62,0.0,7.0,47,0.00,,,0.03,,2013-05-12 16:33:00,
2013-05-12 12:42:00,72.0,51.0,29.83,ENE,62,0.0,7.0,47,0.00,,,0.03,,2013-05-12 16:42:00,
2013-05-12 12:53:00,72.0,51.0,29.82,NW,322,2.0,11.0,47,0.00,,,0.03,,2013-05-12 16:53:00,
2013-05-12 13:02:00,72.0,51.0,29.82,NW,316,0.0,6.0,48,0.00,,,0.03,,2013-05-12 17:02:00,
2013-05-12 13:12:00,72.0,51.0,29.82,WNW,286,1.0,11.0,47,0.00,,,0.03,,2013-05-12 17:12:00,
2013-05-12 13:22:00,72.0,51.0,29.82,WNW,286,1.0,11.0,47,0.00,,,0.03,,2013-05-12 17:22:00,
2013-05-12 13:32:00,73.0,51.0,29.82,NNE,20,0.0,5.0,46,0.00,,,0.03,,2013-05-12 17:32:00,
2013-05-12 13:42:00,73.0,55.0,29.82,NNW,329,1.0,10.0,53,0.00,,,0.03,,2013-05-12 17:42:00,
2013-05-12 13:53:00,73.0,55.0,29.82,NNW,329,1.0,10.0,53,0.00,,,0.03,,2013-05-12 17:53:00,
2013-05-12 14:01:00,74.0,53.0,29.82,WNW,291,1.0,11.0,48,0.00,,,0.03,,2013-05-12 18:01:00,
2013-05-12 14:12:00,74.0,53.0,29.82,WNW,291,1.0,11.0,48,0.00,,,0.03,,2013-05-12 18:12:00,
2013-05-12 14:22:00,74.0,51.0,29.81,NNW,327,1.0,10.0,44,0.00,,,0.03,,2013-05-12 18:22:00,
2013-05-12 14:32:00,74.0,49.0,29.82,ENE,65,3.0,12.0,41,0.00,,,0.03,,2013-05-12 18:32:00,
2013-05-12 14:42:00,74.0,49.0,29.82,ENE,65,3.0,12.0,41,0.00,,,0.03,,2013-05-12 18:42:00,
2013-05-12 14:52:00,73.0,50.0,29.82,South,173,0.0,10.0,44,0.00,,,0.03,,2013-05-12 18:52:00,
2013-05-12 15:01:00,73.0,51.0,29.82,NW,313,1.0,12.0,46,0.00,,,0.03,,2013-05-12 19:01:00,
2013-05-12 15:11:00,73.0,51.0,29.82,NW,313,1.0,12.0,46,0.00,,,0.03,,2013-05-12 19:11:00,
2013-05-12 15:22:00,74.0,49.0,29.82,NNW,343,2.0,11.0,42,0.00,,,0.03,,2013-05-12 19:22:00,
2013-05-12 15:32:00,74.0,49.0,29.82,West,272,5.0,15.0,42,0.00,,,0.03,,2013-05-12 19:32:00,
2013-05-12 15:42:00,74.0,49.0,29.81,NNE,17,0.0,12.0,42,0.00,,,0.03,,2013-05-12 19:42:00,
2013-05-12 15:52:00,74.0,49.0,29.81,NNE,17,0.0,12.0,42,0.00,,,0.03,,2013-05-12 19:52:00,
2013-05-12 16:02:00,74.0,49.0,29.81,NNW,338,0.0,12.0,41,0.00,,,0.03,,2013-05-12 20:02:00,
2013-05-12 16:11:00,75.0,48.0,29.81,NW,321,0.0,7.0,39,0.00,,,0.03,,2013-05-12 20:11:00,
2013-05-12 16:21:00,75.0,48.0,29.81,NW,321,0.0,7.0,39,0.00,,,0.03,,2013-05-12 20:21:00,
2013-05-12 16:32:00,75.0,47.0,29.80,NNE,15,1.0,7.0,37,0.00,,,0.03,,2013-05-12 20:32:00,
2013-05-12 16:42:00,75.0,47.0,29.80,NNE,15,1.0,7.0,37,0.00,,,0.03,,2013-05-12 20:42:00,
2013-05-12 16:52:00,75.0,49.0,29.81,North,353,0.0,13.0,40,0.00,,,0.03,,2013-05-12 20:52:00,
2013-05-12 17:01:00,74.0,47.0,29.81,NW,326,3.0,6.0,38,0.00,,,0.03,,2013-05-12 21:01:00,
2013-05-12 17:11:00,73.0,47.0,29.82,WNW,291,0.0,9.0,39,0.00,,,0.03,,2013-05-12 21:11:00,
2013-05-12 17:21:00,73.0,47.0,29.82,WNW,291,0.0,9.0,39,0.00,,,0.03,,2013-05-12 21:21:00,
2013-05-12 17:33:00,72.0,46.0,29.82,NNE,25,0.0,6.0,40,0.00,,,0.03,,2013-05-12 21:33:00,
2013-05-12 17:42:00,72.0,46.0,29.82,NNE,25,0.0,6.0,40,0.00,,,0.03,,2013-05-12 21:42:00,
2013-05-12 17:53:00,73.0,47.0,29.82,WNW,299,4.0,11.0,39,0.00,,,0.03,,2013-05-12 21:53:00,
2013-05-12 18:02:00,72.0,46.0,29.83,NW,305,1.0,6.0,40,0.00,,,0.03,,2013-05-12 22:02:00,
2013-05-12 18:12:00,72.0,46.0,29.83,NW,305,1.0,6.0,40,0.00,,,0.03,,2013-05-12 22:12:00,
2013-05-12 18:23:00,71.0,44.0,29.83,NW,313,0.0,1.0,38,0.00,,,0.03,,2013-05-12 22:23:00,
2013-05-12 18:33:00,71.0,45.0,29.83,NNW,346,0.0,5.0,40,0.00,,,0.03,,2013-05-12 22:33:00,
2013-05-12 18:42:00,71.0,45.0,29.83,NNW,346,0.0,5.0,40,0.00,,,0.03,,2013-05-12 22:42:00,
2013-05-12 18:52:00,70.0,43.0,29.83,NNW,343,3.0,9.0,37,0.00,,,0.03,,2013-05-12 22:52:00,
2013-05-12 19:02:00,70.0,43.0,29.84,NNE,29,0.0,7.0,38,0.00,,,0.03,,2013-05-12 23:02:00,
2013-05-12 19:12:00,70.0,43.0,29.84,NNE,29,0.0,7.0,38,0.00,,,0.03,,2013-05-12 23:12:00,
2013-05-12 19:22:00,70.0,43.0,29.85,NNE,31,0.0,3.0,37,0.00,,,0.03,,2013-05-12 23:22:00,
2013-05-12 19:32:00,70.0,43.0,29.85,WNW,289,0.0,7.0,38,0.00,,,0.03,,2013-05-12 23:32:00,
2013-05-12 19:42:00,70.0,43.0,29.85,WNW,289,0.0,7.0,38,0.00,,,0.03,,2013-05-12 23:42:00,
2013-05-12 19:52:00,68.0,42.0,29.86,NNW,345,0.0,5.0,39,0.00,,,0.03,,2013-05-12 23:52:00,
2013-05-12 20:01:00,68.0,42.0,29.86,NNW,345,0.0,5.0,39,0.00,,,0.03,,2013-05-13 00:01:00,
2013-05-12 20:11:00,68.0,42.0,29.86,NNW,345,0.0,5.0,39,0.00,,,0.03,,2013-05-13 00:11:00,
2013-05-12 20:22:00,67.0,43.0,29.87,NW,311,0.0,5.0,41,0.00,,,0.03,,2013-05-13 00:22:00,
2013-05-12 20:32:00,66.0,42.0,29.88,NW,309,0.0,1.0,42,0.00,,,0.03,,2013-05-13 00:32:00,
2013-05-12 20:42:00,64.0,41.0,29.89,NW,324,0.0,0.0,43,0.00,,,0.03,,2013-05-13 00:42:00,
2013-05-12 20:52:00,64.0,41.0,29.89,NW,324,0.0,0.0,43,0.00,,,0.03,,2013-05-13 00:52:00,
2013-05-12 21:01:00,63.0,41.0,29.89,NW,309,0.0,4.0,45,0.00,,,0.03,,2013-05-13 01:01:00,
2013-05-12 21:11:00,63.0,41.0,29.89,NW,309,0.0,4.0,45,0.00,,,0.03,,2013-05-13 01:11:00,
2013-05-12 21:22:00,62.0,41.0,29.91,North,355,0.0,0.0,46,0.00,,,0.03,,2013-05-13 01:22:00,
2013-05-12 21:32:00,61.0,43.0,29.90,NNE,31,0.0,1.0,51,0.00,,,0.03,,2013-05-13 01:32:00,
2013-05-12 21:42:00,61.0,43.0,29.90,NNE,31,0.0,1.0,51,0.00,,,0.03,,2013-05-13 01:42:00,
2013-05-12 21:52:00,61.0,42.0,29.91,North,10,0.0,3.0,49,0.00,,,0.03,,2013-05-13 01:52:00,
2013-05-12 22:02:00,60.0,40.0,29.92,North,10,0.0,0.0,47,0.00,,,0.03,,2013-05-13 02:02:00,
2013-05-12 22:11:00,60.0,40.0,29.92,North,10,0.0,0.0,47,0.00,,,0.03,,2013-05-13 02:11:00,
2013-05-12 22:21:00,60.0,39.0,29.93,North,360,0.0,4.0,46,0.00,,,0.03,,2013-05-13 02:21:00,
2013-05-12 22:32:00,60.0,39.0,29.94,NNE,19,0.0,0.0,45,0.00,,,0.03,,2013-05-13 02:32:00,
2013-05-12 22:42:00,60.0,39.0,29.94,NNE,19,0.0,0.0,45,0.00,,,0.03,,2013-05-13 02:42:00,
2013-05-12 22:52:00,59.0,37.0,29.94,NE,36,1.0,7.0,44,0.00,,,0.03,,2013-05-13 02:52:00,
2013-05-12 23:02:00,59.0,38.0,29.95,ENE,70,0.0,5.0,46,0.00,,,0.03,,2013-05-13 03:02:00,
2013-05-12 23:11:00,59.0,38.0,29.95,ENE,70,0.0,5.0,46,0.00,,,0.03,,2013-05-13 03:11:00,
2013-05-12 23:21:00,59.0,39.0,29.94,NNW,342,0.0,1.0,47,0.00,,,0.03,,2013-05-13 03:21:00,
2013-05-12 23:32:00,58.0,37.0,29.94,NNW,347,0.0,1.0,45,0.00,,,0.03,,2013-05-13 03:32:00,
2013-05-12 23:42:00,58.0,37.0,29.94,NNW,347,0.0,1.0,45,0.00,,,0.03,,2013-05-13 03:42:00,
2013-05-12 23:53:00,58.0,36.0,29.94,East,81,0.0,1.0,43,0.00,,,0.03,,2013-05-13 03:53:00,